Miscellaneous Local Product
Issued by NWS North Platte, NE

Home | Current Version | Previous Version | Text Only | Print | Product List | Glossary On
Versions: 1 2 3 4 5 6 7 8 9 10 11 12 13 14 15 16 17 18 19 20 21 22 23 24 25 26 27 28 29 30 31 32 33 34 35 36 37 38 39 40 41 42 43 44 45 46 47 48 49 50
000
AXUS43 KLBF 220110
MISLBF


WESTERN AND NORTH CENTRAL NEBRASKA HOURLY WEATHER ROUNDUP
NATIONAL WEATHER SERVICE NORTH PLATTE NE
700 PM CST WED FEB 21 2018

NOTE: "FAIR" INDICATES FEW OR NO CLOUDS BELOW 12,000 FEET WITH NO
SIGNIFICANT WEATHER AND/OR OBSTRUCTIONS TO VISIBILITY.

NOTE: STATIONS NOT REPORTING VARIABLES SUCH AS SKY/WEATHER OR
PRESSURE ARE PROVIDED BY RAWS AND APRS NETWORKS AND ARE NOT UNDER
NATIONAL WEATHER SERVICE QUALITY CONTROL.

...OBSERVATIONS IN AND NEAR THE EASTERN PANHANDLE OF NEBRASKA...

CITY           SKY/WX    TMP DP  RH WIND       PRES   REMARKS
PINE RIDGE     FAIR      20  10  65 SW8       30.23S WCI  10
GORDON         FAIR      17   7  67 CALM      30.23R
CHADRON        FAIR       5   0  79 CALM      30.24R
ALLIANCE       FAIR      16  10  77 S16       30.20R WCI   1
SIDNEY         FAIR      18  10  71 SE10      30.21R WCI   6
$$

...OBSERVATIONS IN NORTHERN NEBRASKA AND FAR SOUTHERN SOUTH DAKOTA...

CITY           SKY/WX    TMP DP  RH WIND       PRES   REMARKS
WINNER         FAIR      17   7  64 E12       30.40R WCI   4
VALENTINE      FAIR      19   8  62 S15       30.35R WCI   5
AINSWORTH      MOCLDY    17   8  70 S9        30.38S WCI   5
O`NEILL        CLOUDY    19  11  70 SE5       30.45S WCI  13
THEDFORD       FAIR      15   9  75 SE5       30.36S WCI   8
BROKEN BOW     CLOUDY    24  10  55 SE8       30.40S WCI  15
ORD            CLOUDY    23   9  55 SE6       30.45R WCI  16
ALBION         MOCLDY    21  10  64 SE5       30.49S WCI  14
$$

...OBSERVATIONS IN SOUTHWEST NEBRASKA AND FAR NORTHEAST COLORADO...

CITY           SKY/WX    TMP DP  RH WIND       PRES   REMARKS
WRAY           FAIR      25   9  50 SE12      30.26S WCI  14
HOLYOKE        FAIR      25  14  63 SE8       30.27R WCI  16
IMPERIAL       FAIR      18   9  68 E8        30.30F WCI   8
OGALLALA       FAIR      20  11  67 E8        30.32R WCI  11
NORTH PLATTE   CLOUDY    22  12  65 E8        30.36F WCI  12
MCCOOK         CLOUDY    27   5  39 SE9       30.37S WCI  18
LEXINGTON      CLOUDY    29   8  42 SE9       30.40F WCI  20
GOTHENBURG       N/A     26  10  51 SE5         N/A  WCI  20
CALLAWAY         N/A     21  13  71 SE7         N/A  WCI  12
$$

...OBSERVATIONS IN CENTRAL LINCOLN COUNTY AREA...

CITY           SKY/WX    TMP DP  RH WIND       PRES   REMARKS
N.P. AIRPORT   CLOUDY    22  12  65 E8        30.36F WCI  12
$$

...OBSERVATIONS ACROSS THE ROCKIES AND WESTERN HIGH PLAINS...

CITY           SKY/WX    TMP DP  RH WIND       PRES   REMARKS
RAPID CITY     FAIR      10   1  67 S10       30.20S WCI  -4
SCOTTSBLUFF    FAIR      16   9  74 E8        30.19S WCI   5
CHEYENNE       FAIR      17   8  67 S8        30.08R WCI   7
DENVER         FAIR      15   8  73 NW9       30.11R HAZE    WCI   3
BERTHOUD PASS  CLOUDY     3  -8  60 S9        29.89S WCI -11
COPPER MTN     CLOUDY    14  -4  44 SE7       29.89S WCI   4
MONARCH PASS   FAIR      10   5  79 SW21      30.02S WCI  -9
ASPEN          CLOUDY    22   9  57 CALM      29.96R
LARAMIE        FAIR      10   4  76 N8        30.01R WCI  -2
CASPER         FAIR      16   5  62 SW12      30.07R WCI   3
$$

...OBSERVATIONS ACROSS THE NORTHERN PLAINS...

CITY           SKY/WX    TMP DP  RH WIND       PRES   REMARKS
BISMARCK       FAIR       8  -3  61 SE6       30.39F WCI  -2
FARGO          FAIR       9   2  73 MISG      30.54R
PIERRE         FAIR       8   2  76 E10       30.38R WCI  -6
SIOUX FALLS    MOCLDY    14   3  61 SE6       30.56R WCI   5
$$

...OBSERVATIONS ACROSS THE CENTRAL AND SOUTHERN PLAINS...

CITY           SKY/WX    TMP DP  RH WIND       PRES   REMARKS
OMAHA          MOCLDY    25  14  63 E7        30.56F WCI  17
GRAND ISLAND   CLOUDY    26  11  52 E8        30.47F WCI  18
KANSAS CITY    CLOUDY    26  23  88 NE12      30.51R WCI  16
WICHITA        FRZ RAIN  25  21  85 NE17      30.42S FOG     WCI  12
DODGE CITY     CLOUDY    25   2  37 E10       30.34F WCI  15
OKLAHOMA CITY  CLOUDY    24  22  91 N14       30.34S WCI  12
DALLAS         CLOUDY    37  35  92 NW15      30.24F WCI  28
AMARILLO       CLOUDY    27   4  37 E10       30.23F WCI  17
$$




USA.gov is the U.S. government's official web portal to all federal, state and local government web resources and services.